When you browse on this site, cookies collect data to enhance your experience and personalize the content and advertising you see.
Visit our Privacy Policy to learn more. By continuing to use the site, you agree to this use of cookies and data.
  • In Schweiz
  • Länderverzeichnis
  • Für 7 Tage
  • Wassertemperatur
  • Wetterkarte
  • Widgets
  • user-avatar
    Anmelden

    Stündliche Wetter Shuvayka

    Heute, 22 September, Sonntag

    Zeit Temperatur Niederschläge Wind Luftdruck Luftfeuchtigkeit
    00:00 +3°C° 0 mm 5 m/S 736 mmHg 77%
    01:00 +3°C° 0.5 mm 5 m/S 735 mmHg 82%
    02:00 +3°C° 0.5 mm 5 m/S 734 mmHg 87%
    03:00 +3°C° 0 mm 5 m/S 733 mmHg 92%
    04:00 +3°C° 0.3 mm 5 m/S 732 mmHg 92%
    05:00 +5°C° 0.3 mm 5 m/S 731 mmHg 92%
    06:00 +5°C° 0.3 mm 5 m/S 730 mmHg 93%
    07:00 +4°C° 0 mm 6 m/S 730 mmHg 90%
    08:00 +5°C° 0 mm 6 m/S 730 mmHg 87%
    09:00 +5°C° 0 mm 7 m/S 729 mmHg 83%
    10:00 +5°C° 0.3 mm 8 m/S 730 mmHg 83%
    11:00 +5°C° 0.3 mm 8 m/S 730 mmHg 83%
    12:00 +3°C° 0.3 mm 9 m/S 730 mmHg 82%
    13:00 +5°C° 0.3 mm 9 m/S 730 mmHg 76%
    14:00 +5°C° 0.3 mm 9 m/S 731 mmHg 69%
    15:00 +6°C° 0.3 mm 9 m/S 731 mmHg 62%
    16:00 +5°C° 0.1 mm 9 m/S 732 mmHg 66%
    17:00 +4°C° 0.1 mm 8 m/S 732 mmHg 70%
    18:00 +3°C° 0.1 mm 7 m/S 733 mmHg 73%
    19:00 +2°C° 0 mm 7 m/S 733 mmHg 76%
    20:00 +2°C° 0 mm 7 m/S 734 mmHg 78%
    21:00 +1°C° 0 mm 6 m/S 735 mmHg 81%
    22:00 +1°C° 0 mm 6 m/S 735 mmHg 83%
    23:00 -1°C° 0 mm 6 m/S 735 mmHg 84%

    Morgen, 23 September, Montag

    Zeit Temperatur Niederschläge Wind Luftdruck Luftfeuchtigkeit
    00:00 -1°C° 0 mm 6 m/S 736 mmHg 86%
    01:00 -1°C° 0 mm 6 m/S 737 mmHg 86%
    02:00 0°C° 0 mm 5 m/S 737 mmHg 86%
    03:00 0°C° 0 mm 5 m/S 738 mmHg 86%
    04:00 0°C° 0 mm 5 m/S 738 mmHg 83%
    05:00 +1°C° 0 mm 5 m/S 739 mmHg 79%
    06:00 +1°C° 0 mm 5 m/S 739 mmHg 76%
    07:00 +1°C° 0 mm 6 m/S 740 mmHg 74%
    08:00 +2°C° 0 mm 6 m/S 740 mmHg 72%
    09:00 +2°C° 0 mm 6 m/S 741 mmHg 70%
    10:00 +3°C° 0 mm 6 m/S 741 mmHg 68%
    11:00 +3°C° 0 mm 6 m/S 741 mmHg 67%
    12:00 +4°C° 0 mm 6 m/S 742 mmHg 65%
    13:00 +5°C° 0 mm 6 m/S 742 mmHg 63%
    14:00 +5°C° 0 mm 6 m/S 742 mmHg 61%
    15:00 +7°C° 0 mm 6 m/S 742 mmHg 59%
    16:00 +5°C° 0 mm 6 m/S 742 mmHg 61%
    17:00 +5°C° 0 mm 5 m/S 742 mmHg 63%
    18:00 +5°C° 0 mm 5 m/S 742 mmHg 65%
    19:00 +4°C° 0 mm 4 m/S 742 mmHg 68%
    20:00 +3°C° 0 mm 4 m/S 743 mmHg 71%
    21:00 +1°C° 0 mm 3 m/S 743 mmHg 73%
    22:00 +1°C° 0 mm 3 m/S 743 mmHg 75%
    23:00 +1°C° 0 mm 3 m/S 743 mmHg 76%

    übermorgen, 24 September, Dienstag

    Zeit Temperatur Niederschläge Wind Luftdruck Luftfeuchtigkeit
    00:00 0°C° 0 mm 3 m/S 743 mmHg 78%
    01:00 0°C° 0 mm 3 m/S 743 mmHg 79%
    02:00 0°C° 0 mm 3 m/S 743 mmHg 81%
    03:00 -1°C° 0 mm 3 m/S 743 mmHg 83%
    04:00 -1°C° 0 mm 3 m/S 743 mmHg 85%
    05:00 -1°C° 0 mm 3 m/S 743 mmHg 87%
    06:00 -1°C° 0 mm 3 m/S 743 mmHg 88%
    07:00 0°C° 0 mm 3 m/S 743 mmHg 85%
    08:00 +1°C° 0 mm 3 m/S 743 mmHg 82%
    09:00 +1°C° 0 mm 4 m/S 743 mmHg 78%
    10:00 +3°C° 0.1 mm 4 m/S 743 mmHg 76%
    11:00 +4°C° 0.1 mm 4 m/S 743 mmHg 73%
    12:00 +4°C° 0.1 mm 4 m/S 743 mmHg 71%
    13:00 +5°C° 0.1 mm 4 m/S 743 mmHg 68%
    14:00 +5°C° 0.1 mm 4 m/S 743 mmHg 65%
    15:00 +5°C° 0.1 mm 4 m/S 743 mmHg 62%
    16:00 +5°C° 0.1 mm 4 m/S 743 mmHg 65%
    17:00 +4°C° 0.1 mm 3 m/S 743 mmHg 69%
    18:00 +5°C° 0.1 mm 2 m/S 743 mmHg 73%
    19:00 +4°C° 0 mm 2 m/S 743 mmHg 77%
    20:00 +3°C° 0 mm 2 m/S 743 mmHg 81%
    21:00 +2°C° 0 mm 2 m/S 743 mmHg 85%
    22:00 +1°C° 0 mm 2 m/S 743 mmHg 86%
    23:00 +1°C° 0 mm 2 m/S 744 mmHg 87%

    25 September, Mittwoch

    Zeit Temperatur Niederschläge Wind Luftdruck Luftfeuchtigkeit
    00:00 +1°C° 0 mm 2 m/S 744 mmHg 88%
    01:00 -1°C° 0 mm 2 m/S 744 mmHg 89%
    02:00 -1°C° 0 mm 2 m/S 744 mmHg 90%
    03:00 -1°C° 0 mm 2 m/S 744 mmHg 91%
    04:00 -1°C° 0 mm 2 m/S 744 mmHg 91%
    05:00 -2°C° 0 mm 2 m/S 744 mmHg 91%
    06:00 -2°C° 0 mm 2 m/S 744 mmHg 91%
    07:00 +1°C° 0 mm 2 m/S 744 mmHg 85%
    08:00 +2°C° 0 mm 2 m/S 744 mmHg 79%
    09:00 +4°C° 0 mm 2 m/S 744 mmHg 73%
    10:00 +5°C° 0 mm 2 m/S 744 mmHg 68%
    11:00 +5°C° 0 mm 3 m/S 745 mmHg 64%
    12:00 +7°C° 0 mm 3 m/S 745 mmHg 59%
    13:00 +8°C° 0 mm 3 m/S 745 mmHg 57%
    14:00 +8°C° 0 mm 3 m/S 744 mmHg 54%
    15:00 +9°C° 0 mm 3 m/S 744 mmHg 51%
    16:00 +7°C° 0 mm 2 m/S 744 mmHg 55%
    17:00 +7°C° 0 mm 1 m/S 744 mmHg 60%
    18:00 +6°C° 0 mm 1 m/S 744 mmHg 64%
    19:00 +6°C° 0 mm 1 m/S 744 mmHg 67%
    20:00 +5°C° 0 mm 1 m/S 744 mmHg 69%
    21:00 +4°C° 0 mm 1 m/S 744 mmHg 71%
    22:00 +4°C° 0 mm 1 m/S 744 mmHg 73%
    23:00 +4°C° 0 mm 1 m/S 745 mmHg 75%

    26 September, Donnerstag

    Zeit Temperatur Niederschläge Wind Luftdruck Luftfeuchtigkeit
    00:00 +4°C° 0 mm 1 m/S 745 mmHg 77%
    01:00 +4°C° 0 mm 1 m/S 745 mmHg 77%
    02:00 +4°C° 0 mm 1 m/S 745 mmHg 77%
    03:00 +4°C° 0 mm 1 m/S 745 mmHg 77%
    04:00 +4°C° 0 mm 1 m/S 745 mmHg 78%
    05:00 +3°C° 0 mm 1 m/S 744 mmHg 79%
    06:00 +3°C° 0 mm 1 m/S 744 mmHg 81%
    07:00 +4°C° 0 mm 2 m/S 744 mmHg 76%
    08:00 +5°C° 0 mm 2 m/S 744 mmHg 71%
    09:00 +6°C° 0 mm 2 m/S 744 mmHg 66%
    10:00 +8°C° 0 mm 2 m/S 744 mmHg 61%
    11:00 +9°C° 0 mm 3 m/S 744 mmHg 57%
    12:00 +10°C° 0 mm 3 m/S 744 mmHg 52%
    13:00 +11°C° 0 mm 3 m/S 744 mmHg 51%
    14:00 +11°C° 0 mm 3 m/S 744 mmHg 50%
    15:00 +11°C° 0 mm 3 m/S 743 mmHg 50%
    16:00 +10°C° 0 mm 2 m/S 743 mmHg 53%
    17:00 +10°C° 0 mm 2 m/S 742 mmHg 57%
    18:00 +9°C° 0 mm 2 m/S 742 mmHg 60%
    19:00 +9°C° 0 mm 2 m/S 742 mmHg 61%
    20:00 +9°C° 0 mm 3 m/S 742 mmHg 61%
    21:00 +8°C° 0 mm 3 m/S 741 mmHg 61%
    22:00 +8°C° 0 mm 3 m/S 741 mmHg 60%
    23:00 +8°C° 0 mm 3 m/S 741 mmHg 58%

    27 September, Freitag

    Zeit Temperatur Niederschläge Wind Luftdruck Luftfeuchtigkeit
    00:00 +8°C° 0 mm 3 m/S 740 mmHg 57%
    01:00 +8°C° 0 mm 3 m/S 740 mmHg 56%
    02:00 +8°C° 0 mm 3 m/S 739 mmHg 56%
    03:00 +8°C° 0 mm 3 m/S 739 mmHg 55%
    04:00 +8°C° 0 mm 3 m/S 739 mmHg 57%
    05:00 +7°C° 0 mm 3 m/S 738 mmHg 58%
    06:00 +7°C° 0 mm 3 m/S 738 mmHg 59%
    07:00 +7°C° 0.1 mm 3 m/S 737 mmHg 63%
    08:00 +7°C° 0.1 mm 3 m/S 737 mmHg 66%
    09:00 +8°C° 0.1 mm 3 m/S 737 mmHg 69%
    10:00 +7°C° 0.3 mm 2 m/S 737 mmHg 73%
    11:00 +7°C° 0.3 mm 2 m/S 737 mmHg 77%
    12:00 +7°C° 0.3 mm 2 m/S 737 mmHg 81%
    13:00 +8°C° 0.4 mm 1 m/S 737 mmHg 84%
    14:00 +8°C° 0.4 mm 1 m/S 737 mmHg 87%
    15:00 +8°C° 0.4 mm 1 m/S 737 mmHg 90%
    16:00 +7°C° 0.2 mm 2 m/S 737 mmHg 90%
    17:00 +7°C° 0.2 mm 3 m/S 737 mmHg 91%
    18:00 +6°C° 0.2 mm 4 m/S 737 mmHg 91%
    19:00 +5°C° 0 mm 4 m/S 738 mmHg 91%
    20:00 +5°C° 0 mm 5 m/S 738 mmHg 90%
    21:00 +5°C° 0 mm 5 m/S 739 mmHg 89%
    22:00 +5°C° 0 mm 5 m/S 739 mmHg 88%
    23:00 +5°C° 0 mm 5 m/S 740 mmHg 88%
    Mehr zeigen